Temp
15 15 15 14 14 14 14 15 13 15 16 17 17 14 13 12 12 13 12 12 11 10 9 8 7 7 6 5 4 4 4 2 1 2 1 2 2 3 3 4 3 2 2 2
11 14 14 13 14 14 14 14 15 15 15 17 16 17 14 14 13 12 12 12 11 11 10 8 7 6 6 5 5 4 3 3 3 2 2 1 1 2 2 2 2 2 2 2
15 14 12 13 15 16 15 15 15 14 15 16 16 15 12 11 12 11 12 11 10 9 8 8 7 7 6 5 5 4 3 3 3 2 1 1 1 1 1 2 1 1 2 2
13 12 13 16 17 17 15 16 16 16 15 14 12 11 11 11 12 11 11 10 10 8 8 8 8 7 7 6 5 4 4 3 3 2 1 1 1 1 1 1 1 1 1 1
13 14 14 15 15 15 14 13 11 12 12 11 11 11 11 12 11 11 10 9 9 9 9 8 8 8 7 6 5 5 4 3 3 2 2 1 1 1 1 1 1 1 1 1
10 11 13 13 13 14 14 10 10 8 8 8 8 4 5 10 10 9 10 10 9 9 9 9 9 8 7 6 6 6 5 4 4 3 2 2 1 1 1 1 1 1 1 1
10 11 11 14 12 13 10 10 10 10 10 10 6 5 8 8 9 10 10 10 10 10 9 9 9 8 6 6 6 6 5 5 4 4 3 2 2 1 1 1 1 1 1 1
9 10 10 12 12 10 9 10 10 11 10 9 9 9 9 9 8 9 9 10 10 9 10 10 9 8 7 6 7 6 5 5 4 4 3 2 2 1 0 0 0 -0 -1 -1
10 10 12 13 10 12 9 8 10 10 10 9 9 9 9 8 9 9 10 10 10 9 9 9 9 8 8 8 7 7 5 5 5 4 3 2 1 0 -0 -0 -0 -0 -1 -1
9 10 11 12 12 12 11 10 10 11 10 9 8 8 8 8 8 9 9 9 9 9 8 8 9 8 8 8 7 6 5 4 4 3 2 1 1 0 -0 -0 -0 -0 -1 -1
8 11 11 11 10 10 10 10 10 10 9 9 9 8 7 7 6 6 6 6 6 7 7 7 8 7 7 7 6 5 4 3 3 3 2 1 1 0 -0 -0 -0 -1 -1 -1
7 10 8 9 9 10 10 9 9 9 8 8 6 6 5 4 3 3 3 2 2 1 1 3 4 5 6 7 6 5 3 3 2 2 1 1 1 0 -1 -1 -1 -1 -1 -1
9 9 8 9 10 9 8 7 7 6 6 4 3 2 1 1 1 1 1 1 1 1 1 1 1 2 2 3 5 3 3 2 1 1 1 0 -0 -0 -1 -0 -1 -1 -1 -1
9 9 8 7 5 5 4 4 3 2 1 0 0 -1 -1 -0 1 1 1 0 -0 -0 -1 -1 -1 -1 -1 -1 -1 -1 -1 -1 -0 -1 -2 -2 -2 -1 -1 -2 -1 -1 -1 -1
7 6 5 4 3 2 2 1 1 1 -0 -1 -1 -2 -2 -2 -2 -0 -0 -1 -2 -2 -2 -2 -2 -2 -2 -1 -2 -2 -2 -2 -2 -2 -2 -2 -2 -1 -1 -0 -1 -1 -1 -1
4 4 3 2 2 1 1 0 -1 -1 -2 -2 -3 -3 -3 -3 -3 -3 -3 -3 -3 -3 -3 -3 -3 -4 -4 -3 -2 -2 -2 -3 -3 -3 -3 -2 -2 -2 -1 -2 -2 -2 -2 -2
2 1 1 1 0 -0 -0 -1 -2 -2 -2 -3 -4 -4 -4 -5 -4 -4 -4 -4 -5 -5 -4 -5 -5 -5 -4 -4 -4 -4 -4 -4 -4 -4 -4 -3 -2 -2 -2 -2 -2 -2 -2 -2
2 1 0 -0 -1 -1 -2 -2 -2 -3 -3 -4 -4 -5 -5 -6 -5 -5 -5 -5 -5 -4 -4 -4 -5 -5 -5 -4 -5 -5 -5 -5 -5 -4 -4 -4 -4 -4 -3 -3 -3 -3 -3 -3
1 0 -1 -1 -2 -2 -2 -3 -3 -3 -4 -4 -5 -5 -5 -6 -6 -6 -5 -5 -6 -5 -5 -5 -5 -5 -5 -6 -6 -6 -6 -6 -6 -5 -5 -5 -5 -5 -5 -4 -4 -3 -3 -3
0 -0 -1 -1 -2 -2 -2 -2 -3 -4 -4 -4 -5 -5 -6 -6 -5 -6 -6 -6 -6 -7 -7 -7 -7 -7 -6 -8 -8 -8 -8 -7 -7 -7 -7 -7 -6 -6 -6 -6 -5 -5 -4 -4
-1 -1 -2 -2 -2 -2 -2 -2 -4 -3 -4 -4 -4 -5 -6 -6 -6 -6 -7 -6 -7 -8 -8 -9 -8 -8 -9 -9 -9 -9 -9 -8 -8 -8 -8 -8 -8 -8 -7 -7 -6 -6 -5 -5
-1 -2 -3 -3 -2 -2 -2 -3 -3 -3 -4 -4 -5 -6 -7 -7 -7 -8 -8 -8 -9 -9 -10 -10 -10 -10 -10 -10 -10 -10 -10 -9 -9 -9 -9 -9 -9 -8 -8 -8 -7 -7 -6 -6
-1 -2 -2 -2 -2 -2 -2 -3 -4 -4 -4 -5 -6 -7 -8 -8 -8 -9 -9 -9 -10 -11 -11 -11 -11 -11 -11 -11 -10 -10 -10 -10 -10 -10 -9 -9 -9 -9 -8 -8 -8 -8 -7 -7
-2 -2 -2 -2 -2 -2 -3 -4 -4 -5 -6 -6 -7 -8 -8 -9 -9 -9 -10 -11 -11 -11 -12 -12 -12 -12 -12 -12 -12 -11 -11 -11 -11 -11 -10 -10 -10 -9 -9 -9 -8 -8 -8 -8
-2 -2 -2 -3 -3 -3 -4 -5 -5 -6 -7 -7 -8 -9 -9 -9 -10 -10 -11 -11 -12 -12 -12 -12 -13 -13 -13 -13 -13 -13 -13 -13 -12 -12 -12 -11 -10 -10 -10 -9 -9 -9 -8 -8
-2 -3 -3 -3 -3 -4 -6 -6 -7 -8 -8 -9 -9 -9 -9 -10 -10 -11 -12 -12 -12 -12 -13 -13 -13 -13 -14 -14 -14 -14 -14 -13 -12 -13 -12 -11 -10 -10 -10 -10 -9 -9 -9 -9
-2 -3 -3 -3 -5 -5 -6 -7 -8 -8 -8 -9 -9 -9 -10 -10 -11 -11 -12 -12 -13 -12 -13 -13 -13 -14 -15 -15 -15 -14 -14 -13 -14 -14 -14 -13 -13 -11 -10 -11 -10 -10 -10 -10
Height
791 790 792 795 797 794 790 783 789 767 763 754 754 764 766 772 775 775 776 777 779 780 781 783 782 781 780 778 778 775 771 771 770 769 767 765 760 756 752 749 747 743 739 735
800 791 789 788 787 779 775 773 765 758 756 750 753 751 759 764 767 771 772 773 775 776 778 778 777 775 774 773 773 771 770 769 767 767 766 763 759 755 751 748 744 741 737 733
780 784 789 783 765 756 759 755 754 760 746 745 746 750 760 766 766 768 769 770 771 772 773 773 771 770 769 769 769 768 767 766 765 763 763 759 756 751 749 746 742 739 736 732
781 789 776 749 742 744 751 748 745 747 747 753 758 761 763 763 764 766 766 767 768 769 769 768 767 766 765 766 765 764 762 762 762 760 759 757 753 750 748 745 740 737 734 730
786 778 757 751 748 750 752 757 762 757 758 761 761 761 762 761 762 763 763 763 763 764 764 763 761 760 760 761 761 760 758 757 759 757 756 755 751 748 746 742 738 734 731 728
798 786 764 757 757 752 754 770 764 769 769 769 769 787 776 761 761 760 760 759 760 759 758 756 754 753 754 756 754 755 754 753 754 754 751 750 748 745 743 740 736 732 729 726
786 778 770 755 758 756 778 774 767 768 767 767 777 776 764 760 758 755 754 753 753 753 752 750 747 747 747 748 748 748 750 750 751 750 747 746 744 742 739 736 734 730 726 724
789 781 772 759 762 773 771 767 766 764 764 765 764 761 758 756 754 752 751 749 747 747 746 742 740 742 742 741 742 742 744 745 746 746 744 742 741 739 737 734 731 728 725 721
773 769 761 758 764 762 764 766 762 760 760 759 758 755 754 752 749 746 743 742 742 742 740 739 738 742 736 734 735 736 738 740 740 741 740 738 737 737 734 733 729 728 724 720
769 763 765 761 761 761 761 762 760 758 756 755 756 753 749 745 743 741 741 740 739 738 736 733 732 732 731 729 729 730 732 733 735 736 736 735 735 734 733 731 727 726 723 718
767 760 760 759 763 763 761 759 758 757 756 754 752 752 753 750 748 747 745 743 741 740 735 728 726 725 726 724 723 723 724 726 729 731 732 731 730 729 729 727 724 722 719 717
770 758 763 765 763 761 761 761 760 760 758 758 758 758 756 754 752 751 748 747 745 742 740 727 726 724 722 715 714 715 718 720 722 724 726 727 726 725 724 723 721 719 717 715
758 759 763 763 762 764 765 765 765 766 766 766 767 766 765 761 759 756 753 749 748 745 740 735 728 723 719 717 710 709 711 715 717 719 721 722 721 719 717 716 715 715 713 711
755 756 763 767 773 772 773 774 774 776 776 775 775 771 769 767 763 759 754 752 748 745 739 734 728 725 724 719 715 712 711 713 713 715 718 719 718 716 714 712 710 709 709 707
762 766 771 774 773 777 779 777 776 778 779 778 778 775 772 770 766 761 757 753 751 747 740 737 732 728 724 720 718 716 713 713 714 714 714 715 714 712 710 708 707 705 703 701
768 771 774 777 781 783 783 784 783 782 783 783 781 779 777 773 769 765 761 757 752 747 742 737 733 730 725 720 717 713 712 710 710 710 711 711 710 708 706 705 704 701 699 697
769 777 780 782 785 785 784 787 787 787 786 785 784 781 778 774 770 766 762 758 754 749 743 740 736 732 728 723 721 718 715 711 710 708 707 707 705 704 702 701 699 697 695 694
775 778 781 783 785 787 788 789 789 788 787 786 784 781 778 775 771 767 762 757 752 747 743 740 736 733 729 725 721 718 716 713 710 707 706 704 703 701 699 698 696 693 691 690
775 778 781 785 788 788 789 788 788 787 786 784 782 780 778 775 770 765 761 756 751 747 744 740 736 732 729 724 721 718 716 713 709 707 705 703 700 698 697 694 692 689 687 685
776 780 785 787 787 786 786 786 785 785 783 782 780 777 775 771 767 763 759 756 753 750 745 741 737 732 728 724 721 718 715 711 709 706 703 700 697 695 693 691 689 685 682 680
778 782 785 786 785 784 783 783 783 782 782 780 778 775 773 770 767 763 759 755 752 749 745 740 735 731 727 723 718 714 710 706 703 701 698 695 692 689 687 685 683 680 676 674
778 781 783 783 782 781 781 782 783 782 781 779 777 775 772 770 766 764 761 758 752 748 743 738 733 728 723 718 713 708 704 701 698 695 692 690 687 684 682 679 676 673 671 668
777 779 780 779 779 781 782 782 782 781 780 779 778 776 773 771 768 763 757 755 751 747 741 736 731 725 719 713 708 703 699 695 692 689 686 683 680 678 675 672 670 668 665 662
776 776 776 777 779 781 782 782 781 781 780 779 778 776 773 769 766 764 761 756 750 745 740 734 728 722 716 710 705 701 697 693 689 685 681 678 674 672 669 667 664 662 660 658
772 773 774 777 780 781 782 782 782 781 781 780 778 776 773 770 767 763 758 753 748 743 737 731 725 719 713 708 703 698 693 688 684 680 674 670 667 665 663 660 658 656 654 652
770 772 776 778 779 780 781 782 783 782 781 779 777 775 772 769 766 761 757 752 747 741 735 729 723 717 711 705 700 694 689 684 679 674 667 663 660 658 656 654 652 650 648 646
770 773 776 778 778 779 781 782 782 781 780 778 776 773 770 767 764 761 756 751 745 740 735 729 723 716 710 704 697 691 686 680 676 672 667 662 658 653 650 648 646 644 642 640
Wind_Speed
6 5 6 12 15 14 16 20 14 22 23 15 9 8 13 12 13 6 5 4 4 2 3 6 5 4 3 5 8 13 17 18 18 20 22 22 22 21 20 22 22 21 19 20
3 10 14 16 15 20 20 22 23 27 27 17 18 18 7 7 7 5 4 3 4 2 3 2 2 2 4 5 11 14 14 15 17 16 18 21 21 20 21 19 19 22 22 21
17 5 12 14 16 17 13 15 15 18 23 17 14 4 6 5 5 4 1 3 4 3 2 3 3 5 7 8 10 12 11 12 13 17 18 16 19 18 19 19 18 20 20 20
9 5 20 8 2 4 5 8 6 5 8 6 6 6 6 5 2 5 5 3 3 2 5 7 10 10 10 9 11 11 12 13 12 13 16 16 17 16 17 17 18 19 20 21
5 12 14 12 6 1 3 2 7 5 7 7 4 3 1 3 3 3 3 5 9 10 8 9 13 18 13 12 11 14 14 9 11 11 12 14 14 15 15 17 19 18 18 20
2 6 12 2 4 6 2 3 5 4 5 5 5 3 4 4 5 6 10 8 3 6 12 16 21 24 17 13 9 15 15 9 10 11 11 11 12 13 15 17 18 16 18 19
10 6 5 1 4 3 3 3 1 2 2 1 1 5 6 7 9 14 11 9 13 15 20 25 29 21 21 13 9 13 8 7 10 14 10 9 10 13 14 17 18 20 20 20
3 5 6 5 3 3 3 2 3 3 4 4 5 7 8 9 8 7 8 14 19 18 19 22 25 20 16 15 12 11 8 7 11 10 8 7 9 12 13 14 17 18 19 19
6 3 2 1 4 3 6 5 6 5 7 8 9 10 10 8 7 7 14 13 5 12 13 11 6 18 18 17 12 8 8 7 10 8 7 7 7 11 12 13 15 16 17 17
3 3 1 2 4 2 2 4 5 3 5 6 6 8 7 8 7 5 4 6 9 14 16 16 12 14 15 13 12 9 5 1 5 7 4 6 8 8 11 13 13 14 16 16
3 2 3 2 5 5 7 9 9 8 7 7 8 9 10 9 10 12 17 20 20 19 20 18 16 14 18 16 14 11 8 3 5 7 10 12 13 9 10 11 12 16 18 19
4 0 4 3 6 8 6 6 9 12 12 13 16 12 10 8 13 15 15 17 19 19 25 24 21 16 24 17 14 14 10 7 5 3 8 14 8 10 13 14 12 12 14 16
4 6 6 4 6 12 12 15 17 18 18 14 17 19 19 14 20 18 18 18 19 21 21 20 25 22 12 12 13 13 11 8 2 6 14 11 11 14 13 18 10 14 13 14
6 5 7 13 9 15 17 19 22 22 23 22 23 24 22 19 19 21 20 19 22 23 22 24 22 18 26 21 14 11 7 3 2 5 10 13 16 18 20 15 11 14 16 16
14 14 12 12 17 15 18 18 15 14 14 15 19 20 19 17 18 19 20 18 19 19 22 23 22 20 22 22 19 13 7 6 7 9 11 13 16 20 18 13 13 14 17 19
14 14 13 13 11 12 11 12 12 12 10 15 17 19 19 20 20 21 20 23 21 21 24 23 20 23 24 21 21 13 12 9 8 10 12 16 16 14 15 10 17 17 17 20
9 8 8 10 8 8 11 9 10 7 11 11 13 16 18 19 17 19 21 22 24 24 20 16 19 24 23 21 21 19 18 13 12 13 13 15 15 15 13 18 16 17 18 22
14 11 9 7 6 6 6 8 9 10 9 10 13 13 15 16 14 19 21 22 28 27 16 19 20 25 23 21 19 18 19 19 18 14 14 15 15 16 18 17 19 19 19 23
15 10 14 12 10 6 6 5 6 8 9 11 13 12 15 20 19 23 24 25 23 19 23 22 24 22 23 18 19 21 21 20 18 17 17 17 16 17 20 23 24 20 22 22
13 17 12 8 5 3 2 4 4 8 9 11 15 16 17 21 23 25 26 20 20 21 23 25 26 23 20 19 27 27 22 21 20 20 20 20 20 20 22 24 25 25 24 24
12 12 10 6 2 7 10 8 7 13 11 13 16 18 19 21 22 23 19 15 18 26 25 27 24 22 23 26 27 22 22 23 22 20 21 21 23 23 23 23 23 24 28 24
13 11 12 5 8 12 14 9 12 14 14 15 18 16 18 17 19 19 18 19 25 27 28 26 25 27 29 31 24 23 22 21 21 21 21 21 20 21 22 23 23 23 25 27
11 11 9 11 11 9 8 11 14 14 16 17 18 20 17 17 18 18 14 25 25 28 28 26 29 31 31 28 25 25 24 22 21 21 21 22 22 22 20 19 19 20 21 24
11 10 11 11 8 8 7 11 14 13 15 16 16 17 19 18 17 17 20 23 27 29 28 28 31 30 30 25 23 21 20 21 22 22 22 22 23 22 22 22 24 23 23 24
9 13 12 9 6 8 10 12 12 13 14 14 13 17 18 16 16 21 24 27 26 26 27 29 30 30 27 25 24 24 23 24 22 25 26 23 22 21 21 21 23 23 22 21
13 12 7 3 7 10 10 10 10 12 13 10 15 19 17 17 20 22 26 27 27 27 27 29 29 30 28 27 27 25 25 25 24 27 27 24 22 22 21 21 21 21 21 21
11 10 5 4 10 9 8 8 9 12 11 14 18 17 16 20 21 25 27 28 27 26 28 28 29 28 29 29 27 27 26 23 23 23 24 27 25 20 17 16 17 17 17 18
Wind_Direction
244 283 293 285 281 259 251 256 244 263 263 261 284 201 206 182 212 163 123 99 111 76 330 106 103 101 15 337 326 338 344 337 335 335 325 329 329 333 338 338 340 338 337 337
255 260 262 271 263 260 257 258 256 255 264 267 281 281 118 150 130 137 135 142 112 66 57 84 77 32 348 313 322 333 326 331 330 324 319 321 327 335 337 332 337 338 339 334
274 302 317 284 263 259 251 243 243 250 262 274 264 208 115 115 101 105 180 205 116 120 115 329 288 291 294 286 302 319 309 315 311 314 312 317 327 334 331 331 335 341 340 340
287 332 278 287 63 69 225 261 251 283 25 69 83 107 115 113 138 257 255 135 130 179 247 269 268 259 266 261 284 291 291 287 300 315 313 316 328 328 324 328 332 333 332 337
262 265 291 294 329 352 151 292 10 29 41 75 76 94 36 43 20 104 173 204 215 231 248 252 269 268 248 246 267 275 269 256 302 303 313 314 319 319 324 330 334 336 334 334
155 263 278 143 72 50 27 255 2 77 50 37 25 9 265 328 317 301 273 261 216 260 271 269 272 266 226 226 260 281 266 265 290 294 285 306 312 318 325 330 332 327 332 336
225 251 285 93 105 7 98 246 31 58 78 15 235 206 241 271 268 258 231 224 255 263 268 266 268 251 202 212 246 281 244 281 287 289 280 302 313 323 327 331 332 335 336 334
199 224 260 109 34 144 195 216 225 256 274 287 275 284 281 275 265 264 253 255 252 246 270 286 263 213 210 217 244 244 234 268 293 286 281 306 312 320 325 330 336 335 337 332
202 213 237 149 176 194 187 200 229 232 264 269 262 260 269 262 266 261 267 281 329 317 313 319 240 253 234 228 216 235 228 266 287 272 298 317 330 324 323 326 330 328 330 323
102 174 79 310 306 326 297 285 303 296 306 327 304 276 277 273 280 314 338 326 314 296 284 285 287 276 248 232 217 213 189 271 326 313 302 323 316 314 316 316 320 323 323 319
226 314 15 71 53 34 5 353 342 332 316 303 307 342 6 4 9 4 0 354 342 316 293 276 292 304 288 233 210 199 199 220 293 283 298 302 294 285 316 313 317 324 322 319
209 141 161 40 10 9 343 330 3 4 2 14 14 12 10 13 15 10 10 10 1 351 330 332 328 307 294 219 204 198 191 212 227 286 312 310 302 308 317 317 312 313 320 321
104 80 73 24 358 26 31 16 24 28 31 28 22 23 17 9 9 5 4 2 355 346 345 359 352 304 288 309 216 186 187 188 168 335 317 299 317 316 308 311 309 325 319 323
70 82 45 42 46 35 39 33 41 41 39 35 27 27 16 8 3 1 1 356 353 350 352 351 354 5 353 1 26 39 69 62 343 301 308 314 318 309 306 290 307 325 322 324
69 66 65 57 45 37 38 34 36 26 18 19 21 15 7 2 349 340 343 358 350 347 346 339 336 335 335 332 325 315 319 326 317 303 308 305 300 304 301 293 310 313 318 320
73 65 52 52 44 35 35 36 31 20 24 26 17 8 4 359 354 357 6 356 351 341 335 338 351 358 347 343 311 264 265 274 278 289 301 298 301 306 316 325 320 319 312 323
82 65 65 53 50 39 42 40 26 35 23 26 10 357 358 354 351 356 351 350 346 338 341 6 5 359 350 359 352 343 339 335 333 316 305 309 311 314 323 321 315 319 321 328
95 94 84 69 52 42 41 49 18 44 19 14 359 353 355 347 336 340 337 341 341 341 346 343 350 344 344 345 346 337 330 318 308 306 320 316 316 313 311 306 309 308 315 319
95 93 78 73 68 35 52 30 36 36 3 2 354 343 339 343 335 334 339 333 333 332 348 351 347 347 345 354 354 350 346 336 332 329 324 321 324 321 316 308 299 297 308 306
104 97 102 95 67 60 37 27 86 14 1 345 340 328 322 336 335 334 336 331 341 3 358 350 344 339 338 340 334 332 324 318 315 313 313 310 308 307 306 304 300 293 295 299
115 122 128 142 95 61 18 19 47 6 354 347 337 325 332 340 345 351 351 347 352 347 343 340 335 329 330 327 327 319 312 307 302 299 300 297 294 291 287 287 293 294 297 297
135 146 160 140 66 32 11 55 24 10 -0 355 0 13 0 356 355 349 345 343 338 339 339 333 328 324 325 325 318 311 305 300 297 294 291 289 288 288 288 289 288 288 290 292
119 119 103 71 50 3 28 31 22 4 9 22 19 20 9 355 347 340 339 344 346 345 341 336 334 333 330 327 316 310 304 301 299 297 293 288 282 283 280 287 296 301 301 299
120 109 88 63 27 34 39 29 15 10 21 10 4 5 354 342 342 350 345 345 345 346 342 341 340 340 337 330 324 328 336 331 322 314 305 301 293 287 289 290 294 295 296 298
118 97 79 58 34 53 41 23 13 12 6 356 358 349 348 353 353 348 348 346 340 339 339 340 339 339 338 334 330 327 322 319 311 315 301 289 286 289 292 292 297 298 298 301
98 90 77 22 92 70 52 30 17 2 348 355 346 347 352 356 354 350 350 347 341 338 339 338 338 340 335 334 331 326 323 323 318 331 324 288 295 296 294 296 299 301 300 301
122 117 94 67 77 65 51 39 13 348 349 353 342 348 353 355 353 352 351 347 343 341 341 342 341 341 342 337 333 330 328 325 333 336 339 333 338 333 321 330 328 320 317 315